EA5CEE Weather Reports


Display with metric or nautical units.
time (UTC)temp
F
wind
direction
speed
MPH
gust
MPH
rain 1hr
in
rain 24hr
in
rain mn
in
humidity
%
barometer
mb
20260506233014 63 50 4.0 9.0 0.00 0.00 0.00 86 1010.6
20260506231611 63 67 4.0 8.0 0.00 0.00 0.00 87 1010.7
20260506230009 63 46 5.0 7.0 0.00 0.00 0.00 87 1010.8
20260506224509 63 23 3.0 7.0 0.00 0.00 0.00 87 1010.7
20260506223008 63 65 4.0 7.0 0.00 0.00 0.00 87 1010.7
20260506221510 63 68 5.0 8.0 0.00 0.00 0.00 87 1010.7
20260506220007 63 44 3.0 6.0 0.00 0.00 0.00 87 1010.9
20260506214506 63 61 3.0 6.0 0.00 0.00 0.00 86 1011.0
20260506213005 63 68 3.0 6.0 0.00 0.00 0.00 86 1011.3
20260506211505 63 72 4.0 8.0 0.00 0.00 0.00 86 1011.2
20260506210002 63 92 7.0 9.0 0.00 0.00 0.00 86 1011.0
20260506204601 63 49 5.0 7.0 0.00 0.00 0.00 86 1011.0
20260506203059 63 74 6.0 8.0 0.00 0.00 0.00 87 1010.8
20260506201600 63 63 7.0 10.0 0.00 0.00 0.00 87 1010.7
20260506200057 63 63 7.0 11.0 0.00 0.00 0.00 86 1010.5
20260506194557 63 49 7.0 11.0 0.00 0.00 0.00 86 1010.2
20260506193058 63 62 9.0 11.0 0.00 0.00 0.00 86 1010.1
20260506191601 63 66 10.0 14.0 0.00 0.00 0.00 86 1009.8
20260506190054 63 51 10.0 13.0 0.00 0.00 0.00 85 1009.8
20260506184557 63 75 10.0 13.0 0.00 0.00 0.00 85 1009.7
20260506183102 63 61 9.0 13.0 0.00 0.00 0.00 85 1009.5
20260506181603 64 79 12.0 14.0 0.00 0.00 0.00 84 1009.6
20260506180049 64 58 11.0 15.0 0.00 0.00 0.00 85 1009.4
20260506174550 64 76 13.0 17.0 0.00 0.00 0.00 84 1009.6
20260506173116 64 59 12.0 16.0 0.00 0.00 0.00 85 1009.4
20260506171547 64 49 13.0 18.0 0.00 0.00 0.00 85 1009.5
20260506170103 65 68 13.0 17.0 0.00 0.00 0.00 84 1009.3
20260506164546 65 61 13.0 18.0 0.00 0.00 0.00 83 1009.3
20260506163054 65 79 13.0 19.0 0.00 0.00 0.00 82 1009.2
20260506161546 65 56 14.0 19.0 0.00 0.00 0.00 83 1009.3
20260506160045 65 63 15.0 20.0 0.00 0.00 0.00 83 1009.2
20260506154600 65 45 15.0 19.0 0.00 0.00 0.00 82 1009.2
20260506153040 65 58 16.0 20.0 0.00 0.00 0.00 82 1009.3
20260506151539 65 70 17.0 21.0 0.00 0.00 0.00 81 1009.3
20260506150038 65 51 16.0 20.0 0.00 0.00 0.00 79 1009.4
20260506144543 65 68 17.0 21.0 0.00 0.00 0.00 80 1009.5
20260506143036 65 59 18.0 22.0 0.00 0.00 0.00 77 1009.7
20260506141535 66 71 17.0 20.0 0.00 0.00 0.00 79 1009.7
20260506140037 65 56 16.0 22.0 0.00 0.00 0.00 80 1010.0
20260506134534 65 64 16.0 20.0 0.00 0.00 0.00 81 1009.8
20260506133039 66 50 17.0 21.0 0.00 0.00 0.00 79 1009.9
20260506131534 66 62 16.0 22.0 0.00 0.00 0.00 80 1010.0
20260506130035 66 71 18.0 21.0 0.00 0.00 0.00 81 1010.2
20260506124533 66 70 16.0 22.0 0.00 0.00 0.00 82 1010.2
20260506123031 66 53 15.0 22.0 0.00 0.00 0.00 81 1010.2
20260506121531 65 76 17.0 20.0 0.00 0.00 0.00 82 1010.3
20260506120030 65 68 16.0 21.0 0.00 0.00 0.00 82 1010.3
20260506114529 65 54 17.0 20.0 0.00 0.00 0.00 83 1010.4
20260506113028 66 61 18.0 22.0 0.00 0.00 0.00 82 1010.4
20260506111526 66 64 17.0 22.0 0.00 0.00 0.00 80 1010.4
20260506110023 66 51 15.0 21.0 0.00 0.00 0.00 80 1010.6
20260506104541 66 40 15.0 19.0 0.00 0.00 0.00 80 1010.7
20260506103020 66 56 15.0 20.0 0.00 0.00 0.00 80 1010.6
20260506101518 65 61 16.0 19.0 0.00 0.00 0.00 79 1010.6
20260506100015 66 58 14.0 18.0 0.00 0.00 0.00 79 1010.6
20260506094514 66 64 12.0 18.0 0.00 0.00 0.00 80 1010.6
20260506093013 66 80 12.0 19.0 0.00 0.00 0.00 78 1010.5
20260506091509 66 56 16.0 19.0 0.00 0.00 0.00 77 1010.3
20260506090008 66 54 12.0 17.0 0.00 0.00 0.00 76 1010.2
20260506084507 66 56 10.0 14.0 0.00 0.00 0.00 75 1010.2
20260506083009 66 50 8.0 13.0 0.00 0.00 0.00 77 1010.1
20260506081509 65 58 9.0 13.0 0.00 0.00 0.00 76 1010.1
20260506073100 65 41 7.0 10.0 0.00 0.00 0.00 79 1010.1
20260506071622 65 26 5.0 11.0 0.00 0.00 0.00 82 1010.1
20260506061553 62 332 3.0 7.0 0.00 0.00 0.00 85 1010.2
20260506044643 62 75 3.0 5.0 0.00 0.00 0.00 89 1009.2
20260506043049 62 75 3.0 4.0 0.00 0.00 0.00 85 1009.2
20260506041546 61 67 1.0 3.0 0.00 0.00 0.00 81 1009.1
20260506040047 61 63 1.0 3.0 0.00 0.00 0.00 78 1009.1
20260506034539 61 65 0.0 2.0 0.00 0.00 0.00 76 1009.2
20260506033038 62 352 1.0 4.0 0.00 0.00 0.00 72 1009.2
20260506031539 62 267 1.0 5.0 0.00 0.00 0.00 70 1009.2
20260506030034 62 297 0.0 2.0 0.00 0.00 0.00 71 1009.1
20260506024541 62 267 1.0 3.0 0.00 0.00 0.00 72 1008.9
20260506023031 62 65 1.0 2.0 0.00 0.00 0.00 76 1008.9
20260506021543 62 65 1.0 2.0 0.00 0.00 0.00 79 1008.9
20260506020026 62 65 0.0 0.0 0.00 0.00 0.00 82 1009.0
20260506014527 62 65 0.0 0.0 0.00 0.00 0.00 83 1009.0
20260506013024 63 65 0.0 0.0 0.00 0.00 0.00 82 1009.1
20260506011525 62 65 0.0 1.0 0.00 0.00 0.00 85 1009.1
20260506010120 63 65 0.0 1.0 0.00 0.00 0.00 87 1009.1
20260506004518 63 65 0.0 1.0 0.00 0.00 0.00 87 1009.2
20260506003017 63 271 0.0 1.0 0.00 0.00 0.00 87 1009.2
20260506001516 63 271 0.0 2.0 0.00 0.00 0.00 88 1009.3
20260506000014 62 271 1.0 3.0 0.00 0.00 0.00 88 1009.3
20260505234514 63 267 0.0 2.0 0.00 0.00 0.00 89 1009.4